Wind_Speed
10 10 9 9 8 7 8 9 9 9 8 7 6 5 4 3 4 5 5 5 5 5 4 4 5 5 6 7 8 8 8 8 9 9 9 9 9 9 9 10 9 9 10 10 10 10 10 11 11
11 10 10 10 8 8 10 11 11 11 9 8 7 6 5 5 5 6 6 5 5 6 6 6 6 6 7 7 8 9 10 10 10 10 10 10 10 10 11 11 11 11 11 12 12 12 13 13 13
11 11 11 10 10 10 11 12 12 11 10 8 8 8 7 7 7 6 7 7 7 7 8 8 7 8 8 8 9 10 11 11 11 11 11 11 11 11 12 12 12 12 13 13 14 14 14 15 15
12 12 12 12 12 12 12 12 12 12 11 9 9 8 8 8 8 8 8 8 9 9 9 9 9 9 10 10 10 11 11 11 12 11 11 11 12 13 13 13 14 14 14 14 15 16 16 16 16
13 13 13 13 12 12 12 12 12 12 12 10 9 8 9 8 8 9 9 9 10 10 10 10 10 10 10 11 10 11 11 11 12 12 12 13 13 14 14 15 15 15 15 16 16 16 17 17 18
13 14 13 13 13 13 13 13 13 13 12 11 11 10 10 9 9 10 11 10 10 10 10 10 11 11 11 11 11 12 12 12 13 13 13 14 14 15 15 15 16 16 17 17 17 18 18 19 19
13 13 13 13 13 14 14 14 13 13 13 12 11 11 11 11 10 11 12 12 12 11 11 11 11 12 12 12 12 13 13 14 14 15 15 16 16 16 17 17 17 17 18 19 19 20 20 20 21
13 13 13 14 13 15 15 14 13 13 13 13 12 12 12 12 11 12 13 13 12 12 12 12 12 12 12 13 14 14 14 15 15 16 16 17 17 18 18 18 18 19 19 20 21 21 22 22 22
13 13 14 14 13 15 16 15 14 13 13 12 13 13 13 13 12 13 13 13 13 12 12 13 13 13 13 14 15 15 16 16 17 17 18 18 18 19 19 19 20 20 20 21 21 22 22 23 23
13 13 14 14 15 16 16 15 14 13 12 13 13 13 13 13 13 13 13 12 12 12 12 13 13 14 14 15 16 16 17 17 18 18 18 19 19 20 20 21 21 21 21 21 22 23 24 24 25
12 13 14 14 15 15 15 15 14 13 12 13 14 14 15 15 14 14 14 13 13 13 13 14 15 16 16 17 17 18 19 19 19 19 19 20 20 21 21 21 22 22 22 23 23 23 24 25 26
10 11 12 13 13 13 14 13 13 13 13 13 14 15 15 15 15 15 14 15 15 14 15 16 17 18 19 20 19 20 20 20 20 20 20 21 21 21 22 22 23 23 23 24 24 24 24 25 26
8 9 10 11 11 11 12 12 12 12 12 12 13 14 15 15 15 15 14 15 15 15 16 18 19 20 21 22 22 22 22 21 21 21 21 22 22 21 22 23 23 23 24 24 25 25 25 26 26
7 7 7 9 10 10 11 12 12 12 12 13 14 15 15 15 15 16 16 16 16 17 18 19 20 22 23 23 24 24 23 22 21 22 22 22 23 22 22 23 23 23 24 25 26 26 27 27 27
5 5 6 8 9 9 9 10 12 12 12 13 14 15 15 15 15 16 17 17 18 19 20 21 22 23 24 25 24 24 23 22 22 23 23 24 24 23 23 23 24 25 25 26 26 27 27 27 28
4 4 6 7 8 8 8 9 11 12 13 14 14 14 14 15 16 17 18 18 20 21 22 23 23 24 24 25 24 23 22 23 23 24 24 25 25 24 24 24 25 26 26 27 27 28 28 28 28
4 5 7 8 8 9 9 10 11 12 13 13 13 13 14 16 17 18 19 20 21 21 22 22 23 23 24 24 23 24 23 24 25 25 26 26 25 25 26 26 27 27 28 28 28 28 28 28 28
6 6 7 8 9 9 10 10 11 12 13 14 13 14 15 17 18 19 19 20 21 22 22 23 23 23 24 24 24 24 24 25 25 24 26 26 26 26 27 27 27 28 28 29 29 28 28 28 28
5 6 7 8 9 10 10 10 11 12 13 14 15 15 17 18 19 20 20 21 22 22 23 23 23 24 24 25 24 23 23 24 24 25 26 26 27 27 27 27 27 27 28 28 28 28 28 27 27
5 6 7 8 9 10 10 10 11 13 14 14 15 17 19 19 20 21 22 22 23 23 23 24 24 24 24 23 23 22 22 23 25 26 26 26 27 27 27 27 27 28 28 28 28 28 27 27 27
5 6 7 8 9 9 9 10 12 13 14 15 16 17 18 19 20 21 22 22 23 23 24 24 25 25 24 23 23 23 23 24 25 25 26 26 26 26 27 27 27 28 28 28 27 27 26 26 27
7 7 8 9 8 9 8 10 12 13 14 16 17 17 18 19 20 21 21 21 22 23 23 24 25 25 23 23 23 22 23 24 24 26 27 26 26 26 27 27 28 27 27 27 27 26 26 26 25
8 8 9 8 8 9 10 10 13 14 15 16 17 18 18 19 20 20 21 21 22 23 23 23 24 24 23 23 23 22 23 24 24 24 25 25 26 27 27 28 27 27 26 26 26 25 25 25 24
7 8 7 7 7 9 11 11 14 15 15 16 17 18 19 20 20 20 21 21 22 23 23 24 23 23 23 23 23 24 24 23 24 24 24 25 26 27 27 28 27 27 26 26 25 24 24 24 23
7 7 8 8 8 10 12 13 15 16 16 17 18 19 19 20 20 20 21 21 22 22 22 23 23 23 23 23 24 25 25 24 25 25 27 27 27 27 26 26 26 26 25 25 24 24 24 23 23
9 9 9 10 11 12 14 15 16 17 18 19 19 19 19 19 20 20 21 21 21 21 22 23 23 22 23 24 25 26 26 25 25 26 27 27 27 26 25 25 25 25 25 24 24 23 24 23 23
11 11 11 12 12 13 13 15 17 17 18 19 19 19 19 19 20 20 21 21 21 22 23 23 23 24 24 24 25 25 25 25 25 24 25 26 25 24 24 24 24 24 24 23 23 22 22 22 22
12 13 13 12 13 13 14 14 16 18 18 18 18 18 19 19 20 20 20 20 21 21 22 23 24 24 24 23 23 24 24 24 23 23 24 24 24 23 23 23 24 24 24 23 22 22 22 21 21
13 13 13 14 14 14 14 15 18 18 18 18 18 19 19 20 20 20 20 20 21 22 22 23 23 22 21 21 22 22 22 22 23 24 24 24 22 22 22 22 23 23 22 22 21 21 21 21 21
12 12 13 14 15 15 16 17 18 18 19 18 19 19 19 20 20 20 21 21 21 22 22 23 23 21 21 21 22 22 21 21 22 23 23 22 21 21 22 22 22 22 21 21 20 20 21 21 21
Wind_Direction
228 228 225 220 219 224 229 236 239 242 244 242 245 243 234 236 240 254 269 270 268 266 265 271 271 276 285 290 294 293 292 293 291 290 291 292 293 293 293 293 291 291 290 290 291 289 285 284 282
227 224 223 217 213 222 234 237 241 243 250 252 255 254 251 252 253 262 267 270 268 272 274 273 274 277 282 286 293 297 294 292 294 294 294 295 296 295 295 295 293 290 289 290 289 288 286 284 283
230 227 224 218 216 217 231 238 241 246 247 251 257 258 258 262 265 266 265 268 270 273 277 279 278 280 282 285 291 294 297 296 295 296 297 297 296 295 296 297 294 291 289 289 288 287 286 286 284
231 228 227 222 224 227 232 237 242 244 245 252 256 256 261 264 267 272 276 276 276 277 281 284 284 284 284 286 293 295 294 295 294 295 298 298 298 295 294 295 294 291 287 287 288 287 286 285 284
232 229 227 228 231 232 230 231 238 243 248 253 257 260 262 264 270 276 279 281 282 282 284 287 287 287 287 289 290 295 293 291 295 295 296 297 298 296 294 293 294 291 289 289 289 288 286 285 285
231 229 225 231 234 231 232 235 238 243 247 252 259 265 269 267 269 275 277 278 279 282 287 291 292 291 291 288 291 295 296 292 294 296 297 297 298 296 294 293 293 291 288 287 287 287 286 286 285
230 227 226 230 232 235 235 236 238 240 243 247 253 258 262 267 268 271 276 277 278 281 287 291 292 290 290 293 295 295 295 297 293 295 294 295 295 295 295 294 291 289 288 288 287 286 286 284 285
231 228 228 230 233 235 235 237 239 239 241 244 249 254 255 263 267 269 274 276 277 279 283 286 287 289 292 293 294 294 294 296 297 297 295 293 292 292 292 293 292 291 291 290 288 288 287 286 285
232 227 228 230 233 237 236 234 236 240 245 249 251 254 257 260 263 266 271 274 277 278 280 283 286 289 291 291 292 293 293 293 294 294 293 291 291 291 290 292 292 292 291 291 291 288 289 287 285
233 226 231 233 234 237 239 238 238 243 246 249 250 252 255 259 262 266 271 274 281 283 281 283 285 288 290 291 290 291 292 291 293 294 292 291 291 291 289 290 291 291 291 291 292 290 287 286 285
234 229 232 235 236 239 243 242 243 244 246 248 250 253 256 259 264 269 274 278 282 282 282 282 286 288 287 288 291 290 289 289 290 291 290 290 291 290 289 289 290 291 291 291 292 292 290 288 288
231 230 231 230 232 237 241 243 244 245 251 256 258 258 258 258 261 268 273 278 281 281 283 284 285 287 287 288 289 289 288 288 289 288 289 289 290 288 288 289 288 289 290 290 290 291 291 289 289
228 228 224 224 229 237 241 245 246 249 257 261 263 262 261 261 263 268 271 275 278 282 285 286 287 288 289 289 288 287 287 286 287 286 287 289 287 286 287 290 290 290 290 290 289 289 290 289 287
222 225 223 224 232 235 240 245 249 254 257 262 264 265 264 262 264 269 272 274 277 281 284 286 288 290 289 289 288 287 286 285 285 285 285 285 287 286 287 288 289 290 290 291 291 290 289 288 288
213 218 226 231 237 236 243 249 255 257 261 262 263 265 265 266 268 269 272 273 275 279 282 284 286 290 288 289 288 286 283 285 285 286 286 285 286 285 286 287 288 289 289 291 291 291 290 290 288
214 223 235 240 244 243 252 258 259 259 261 262 266 268 271 273 273 271 271 276 279 281 283 285 287 291 290 291 289 286 287 287 285 284 285 285 286 287 288 288 288 289 289 290 291 291 292 291 290
237 246 249 249 251 253 255 261 264 263 264 268 272 275 275 275 277 277 276 280 283 285 286 287 287 289 290 291 290 291 288 285 283 284 285 285 287 289 291 290 289 290 289 289 289 290 290 291 290
251 256 257 257 258 261 263 269 270 268 268 269 273 278 280 280 283 283 284 286 287 288 287 288 289 290 290 290 290 288 286 286 285 286 287 287 287 290 291 291 290 290 290 290 289 289 289 290 290
259 261 260 260 264 270 272 272 271 272 273 275 276 280 283 285 287 285 286 287 289 290 290 291 292 292 292 293 290 288 287 289 288 286 287 289 289 290 292 292 291 292 292 292 290 288 288 288 288
274 275 275 271 274 278 276 273 274 277 280 283 283 284 286 288 289 288 288 288 290 290 291 291 292 293 295 294 292 290 292 292 290 287 288 290 290 290 292 291 292 293 294 293 291 287 287 287 287
294 285 281 280 283 285 277 279 282 285 287 288 288 288 288 290 290 289 289 289 289 291 292 291 292 292 293 293 293 294 294 293 288 287 288 288 290 293 292 292 293 293 294 293 291 288 287 288 287
293 292 284 283 287 288 281 285 288 290 291 291 290 290 292 293 292 290 291 291 292 293 293 294 294 293 291 292 292 293 293 293 291 290 288 288 291 293 294 293 293 293 293 293 291 288 288 287 286
294 297 294 287 284 283 285 288 292 295 294 294 293 293 296 297 297 294 292 292 293 294 295 296 295 295 295 294 291 291 291 292 293 294 292 292 292 293 295 294 294 293 293 293 291 288 288 289 288
308 305 304 301 298 294 292 294 298 299 298 297 296 297 298 301 300 295 294 295 295 295 295 296 297 297 296 294 293 291 291 293 295 296 297 297 296 296 295 294 294 294 294 294 292 290 290 290 290
316 318 317 313 302 293 293 296 299 302 300 301 302 302 303 303 301 298 298 297 298 298 298 298 300 298 297 294 294 294 294 295 297 299 299 299 298 297 298 298 297 295 295 295 293 291 290 289 288
320 317 307 303 297 292 296 300 302 303 301 303 304 304 304 305 301 299 299 297 298 298 299 300 300 299 297 295 295 295 297 297 298 299 299 299 298 298 299 299 299 298 297 295 292 291 290 288 287
319 317 310 307 306 303 299 303 302 302 300 303 305 304 305 305 301 300 300 299 300 299 299 301 301 301 302 300 298 299 299 297 297 297 299 299 298 299 299 300 301 301 299 296 293 292 291 289 287
318 316 314 314 311 307 304 302 301 304 305 306 306 305 306 305 303 302 301 300 302 302 302 303 305 305 305 303 302 301 299 297 297 298 300 299 299 300 302 303 303 302 300 297 294 292 291 290 289
318 317 316 313 309 306 303 301 303 305 308 308 307 305 306 307 306 306 306 304 304 306 306 304 306 305 304 306 307 306 302 299 297 299 301 303 302 303 304 303 304 303 303 300 297 296 294 292 290
316 317 318 316 311 306 304 300 303 307 309 310 309 309 310 311 310 310 310 307 307 308 308 307 308 305 307 309 310 309 307 305 303 302 302 304 304 304 305 305 306 305 304 302 301 298 298 297 293
Height
5890 5891 5892 5894 5897 5899 5899 5899 5898 5898 5898 5898 5899 5899 5899 5900 5900 5902 5899 5897 5896 5896 5895 5894 5894 5894 5893 5893 5893 5892 5891 5890 5889 5888 5887 5886 5885 5884 5884 5883 5882 5881 5881 5881 5880 5880 5879 5879 5878
5887 5889 5891 5892 5895 5898 5898 5896 5896 5896 5897 5897 5897 5897 5897 5897 5897 5897 5896 5895 5895 5894 5893 5893 5892 5892 5891 5891 5891 5890 5889 5888 5887 5886 5885 5884 5883 5882 5881 5880 5880 5879 5878 5878 5877 5877 5876 5876 5875
5885 5886 5888 5890 5893 5895 5895 5894 5894 5894 5894 5895 5895 5896 5896 5896 5895 5895 5894 5894 5893 5892 5892 5891 5890 5890 5889 5889 5888 5888 5887 5886 5885 5884 5883 5881 5881 5880 5879 5878 5877 5876 5876 5875 5874 5873 5873 5872 5872
5882 5884 5886 5889 5890 5891 5891 5891 5891 5892 5892 5893 5893 5894 5894 5894 5893 5893 5892 5892 5891 5890 5890 5889 5888 5888 5887 5887 5886 5885 5884 5883 5882 5881 5880 5879 5878 5877 5876 5875 5874 5873 5872 5872 5871 5870 5869 5868 5868
5878 5881 5884 5886 5887 5888 5888 5889 5889 5889 5890 5890 5891 5892 5891 5892 5891 5891 5890 5890 5889 5888 5888 5887 5886 5886 5885 5884 5884 5883 5882 5881 5880 5879 5878 5877 5875 5874 5873 5872 5871 5870 5869 5868 5867 5866 5865 5864 5864
5876 5878 5881 5883 5884 5885 5886 5886 5887 5887 5888 5888 5889 5889 5889 5890 5889 5889 5888 5887 5887 5886 5885 5885 5884 5883 5882 5881 5881 5880 5879 5878 5877 5876 5875 5874 5872 5871 5870 5869 5867 5866 5865 5864 5863 5862 5861 5861 5860
5874 5876 5878 5881 5882 5883 5883 5883 5884 5884 5885 5886 5886 5887 5887 5887 5887 5886 5885 5885 5884 5884 5883 5882 5881 5880 5879 5879 5878 5878 5877 5876 5874 5873 5872 5871 5869 5868 5867 5865 5864 5863 5861 5860 5859 5858 5857 5856 5855
5871 5874 5876 5877 5879 5880 5880 5880 5881 5881 5882 5883 5884 5884 5884 5885 5884 5884 5883 5882 5882 5881 5881 5880 5879 5878 5877 5876 5876 5875 5874 5873 5871 5870 5868 5867 5865 5864 5863 5862 5860 5859 5857 5856 5855 5854 5853 5851 5850
5868 5872 5873 5874 5876 5876 5876 5877 5878 5879 5880 5880 5881 5881 5882 5882 5882 5881 5881 5880 5879 5879 5878 5877 5876 5875 5875 5874 5873 5872 5871 5869 5868 5866 5865 5863 5862 5860 5859 5857 5856 5854 5853 5851 5850 5849 5847 5846 5844
5866 5868 5870 5871 5872 5873 5873 5874 5875 5877 5877 5878 5879 5879 5879 5879 5879 5879 5878 5878 5877 5877 5876 5875 5874 5873 5872 5871 5869 5868 5867 5866 5864 5862 5861 5859 5858 5856 5854 5853 5851 5850 5848 5847 5845 5843 5842 5840 5839
5863 5865 5866 5867 5869 5869 5871 5872 5873 5874 5875 5875 5875 5876 5876 5877 5876 5876 5876 5875 5874 5874 5873 5872 5871 5870 5869 5867 5866 5865 5863 5862 5860 5858 5856 5855 5853 5852 5850 5848 5846 5845 5843 5842 5840 5838 5836 5835 5834
5861 5862 5863 5865 5866 5867 5868 5869 5870 5871 5872 5872 5872 5872 5873 5873 5873 5873 5873 5872 5871 5871 5870 5869 5867 5866 5865 5863 5862 5860 5859 5857 5856 5854 5852 5850 5849 5847 5845 5843 5841 5840 5838 5836 5834 5832 5831 5829 5828
5860 5861 5862 5863 5864 5865 5866 5867 5868 5869 5869 5870 5870 5870 5870 5870 5870 5870 5869 5868 5868 5867 5866 5865 5863 5862 5861 5859 5858 5856 5854 5852 5851 5850 5848 5846 5844 5842 5840 5838 5836 5834 5833 5831 5829 5827 5825 5823 5822
5858 5859 5861 5862 5862 5863 5864 5865 5866 5866 5867 5867 5867 5866 5866 5866 5866 5866 5865 5865 5864 5863 5862 5861 5859 5858 5856 5855 5853 5851 5850 5848 5846 5845 5843 5841 5839 5837 5835 5833 5831 5829 5827 5825 5823 5821 5819 5817 5816
5857 5859 5860 5861 5861 5861 5862 5863 5863 5864 5864 5864 5863 5863 5862 5862 5862 5861 5861 5860 5860 5859 5858 5857 5855 5853 5851 5849 5848 5845 5844 5843 5842 5840 5837 5836 5834 5832 5830 5828 5826 5824 5822 5820 5818 5815 5813 5811 5809
5858 5859 5860 5860 5859 5860 5862 5862 5861 5861 5861 5861 5860 5859 5859 5859 5858 5858 5857 5856 5855 5854 5853 5852 5850 5849 5846 5844 5842 5841 5839 5838 5836 5834 5832 5830 5828 5826 5824 5822 5821 5819 5816 5814 5812 5809 5807 5804 5802
5858 5859 5859 5859 5858 5858 5860 5859 5859 5859 5858 5858 5857 5856 5856 5855 5854 5854 5853 5852 5851 5850 5848 5847 5845 5844 5841 5839 5837 5835 5833 5832 5830 5828 5826 5824 5822 5820 5819 5817 5815 5812 5809 5807 5805 5802 5800 5798 5795
5859 5858 5858 5858 5857 5857 5857 5857 5856 5856 5856 5855 5854 5854 5852 5852 5850 5849 5848 5847 5846 5845 5843 5842 5840 5838 5836 5834 5832 5830 5828 5827 5825 5823 5820 5818 5816 5814 5812 5810 5808 5805 5803 5800 5798 5795 5793 5791 5789
5857 5857 5857 5856 5856 5855 5855 5855 5854 5854 5853 5852 5851 5850 5849 5848 5846 5845 5844 5842 5841 5840 5838 5837 5835 5833 5831 5828 5826 5825 5823 5821 5819 5817 5814 5812 5810 5808 5805 5803 5801 5798 5796 5793 5791 5788 5786 5784 5782
5856 5856 5856 5855 5854 5854 5853 5853 5852 5851 5850 5849 5848 5847 5845 5844 5842 5840 5839 5838 5836 5835 5833 5831 5829 5827 5825 5823 5821 5819 5817 5815 5813 5811 5808 5807 5804 5802 5799 5797 5795 5792 5789 5786 5783 5781 5779 5777 5775
5855 5855 5854 5853 5852 5852 5852 5852 5850 5849 5847 5846 5844 5843 5841 5839 5838 5836 5834 5832 5831 5829 5828 5826 5824 5822 5820 5818 5816 5813 5811 5809 5807 5805 5803 5801 5798 5796 5794 5791 5788 5785 5782 5779 5776 5774 5772 5771 5769
5854 5853 5852 5851 5851 5851 5851 5850 5848 5846 5844 5843 5841 5839 5837 5835 5833 5831 5829 5827 5825 5824 5822 5820 5818 5816 5814 5812 5810 5808 5806 5804 5802 5799 5797 5795 5792 5790 5787 5784 5781 5778 5775 5772 5769 5767 5765 5763 5762
5852 5851 5850 5849 5849 5849 5848 5848 5847 5843 5841 5839 5837 5835 5833 5830 5828 5826 5824 5822 5820 5818 5816 5814 5812 5810 5808 5806 5804 5802 5800 5799 5796 5793 5791 5788 5786 5783 5780 5777 5774 5771 5768 5765 5762 5760 5758 5756 5755
5849 5849 5848 5847 5847 5847 5846 5845 5843 5840 5837 5835 5833 5831 5828 5826 5823 5821 5819 5817 5815 5813 5811 5809 5807 5805 5803 5801 5799 5797 5795 5793 5790 5788 5785 5782 5780 5777 5774 5771 5768 5764 5761 5758 5756 5753 5751 5750 5748
5847 5847 5847 5846 5846 5845 5842 5841 5839 5836 5833 5831 5828 5826 5824 5821 5819 5816 5814 5812 5810 5808 5806 5803 5802 5800 5798 5795 5793 5791 5789 5787 5784 5782 5779 5776 5773 5770 5767 5764 5760 5757 5754 5752 5749 5747 5745 5743 5742
5845 5845 5845 5844 5843 5841 5838 5836 5835 5831 5829 5826 5824 5821 5819 5817 5814 5812 5809 5807 5805 5803 5801 5798 5796 5794 5792 5790 5788 5786 5783 5781 5779 5776 5773 5769 5766 5763 5760 5757 5754 5751 5748 5745 5743 5740 5738 5737 5735
5843 5841 5841 5839 5838 5836 5835 5832 5830 5827 5824 5822 5820 5817 5815 5812 5810 5807 5805 5802 5800 5798 5796 5793 5791 5788 5786 5783 5781 5779 5777 5775 5772 5770 5766 5763 5760 5757 5754 5751 5747 5744 5741 5739 5736 5734 5732 5730 5729
5841 5839 5837 5836 5834 5833 5832 5829 5827 5823 5821 5818 5816 5813 5810 5808 5805 5802 5800 5797 5795 5793 5790 5788 5785 5782 5780 5777 5775 5772 5770 5768 5766 5763 5760 5757 5754 5751 5747 5744 5742 5739 5736 5733 5730 5728 5726 5725 5723
5838 5836 5834 5833 5831 5829 5828 5828 5822 5819 5816 5814 5811 5809 5806 5803 5800 5797 5795 5792 5790 5787 5785 5782 5779 5777 5774 5772 5769 5767 5764 5762 5760 5758 5754 5751 5747 5744 5741 5739 5736 5733 5730 5727 5724 5722 5720 5718 5717
5835 5833 5831 5830 5827 5825 5823 5824 5817 5815 5812 5809 5807 5804 5801 5798 5795 5793 5790 5787 5785 5782 5779 5776 5774 5771 5769 5767 5764 5761 5759 5756 5754 5751 5748 5745 5742 5739 5736 5733 5730 5727 5724 5721 5719 5716 5714 5712 5710